Location: Eckley Miners' Village
(40.9930°N, 75.8630°W)
Time: 08:12:47
(UTC-05:00)

BlueWalker 3 - Visible Passes

Search period start: 05 December 2023 00:00
Search period end: 15 December 2023 00:00
Orbit: 489 x 503 km, 53.2° (Epoch: 04 December)

Date Brightness Start Highest point End Pass type
(mag) Time Alt. Az. Time Alt. Az. Time Alt. Az.
05 Dec 4.8 04:16:26 17° E 04:16:26 17° E 04:17:26 10° E visible
05 Dec 2.9 05:51:00 26° W 05:52:09 31° SW 05:55:32 10° SSE visible
06 Dec 2.9 05:29:40 31° SW 05:29:40 31° SW 05:32:52 10° SSE visible
07 Dec 3.7 05:08:23 23° S 05:08:23 23° S 05:10:12 10° SSE visible
08 Dec 4.6 04:47:09 12° SSE 04:47:09 12° SSE 04:47:30 10° SSE visible
11 Dec 4.5 18:55:10 10° S 18:55:38 12° S 18:55:38 12° S visible
12 Dec 3.7 18:32:25 10° S 18:34:19 21° SSE 18:34:19 21° SSE visible
13 Dec 3.2 18:09:39 10° S 18:12:53 25° SE 18:12:54 25° SE visible
13 Dec 5.3 19:47:21 10° WSW 19:47:29 11° WSW 19:47:29 11° WSW visible
14 Dec 3.2 17:46:52 10° S 17:50:04 25° SE 17:51:25 21° E visible
14 Dec 4.5 19:24:32 10° WSW 19:25:59 21° W 19:25:59 21° W visible
